Regional Weather Roundup
Issued by NWS

Home | Current Version | Previous Version | Text Only | Print | Product List | Glossary On
Versions: 1 2 3 4 5 6 7 8 9 10 11 12 13 14 15 16 17 18 19 20 21 22 23 24 25 26 27 28 29 30 31 32 33 34 35 36 37 38 39 40 41 42 43 44 45 46 47 48 49 50
000
ASUS45 KBOI 042010
RWRID

IDAHO REGIONAL WEATHER ROUNDUP
NATIONAL WEATHER SERVICE BOISE ID
200 PM MDT TUE AUG 04 2015

NOTE: "FAIR" INDICATES FEW OR NO CLOUDS BELOW 12000 FEET
WITH NO SIGNIFICANT WEATHER AND/OR OBSTRUCTIONS TO VISIBILITY

IDZ012-014-042100-
SOUTHWEST IDAHO


CITY           SKY/WX    TMP DP  RH WIND       PRES   REMARKS
BOISE          SUNNY     88  50  27 NW7       29.96F
CALDWELL       SUNNY     84  52  32 NE3       29.97F
MOUNTAIN HOME  SUNNY     88  46  23 VRB6      29.96F
$$

IDZ016-017-042100-
SOUTHCENTRAL IDAHO


CITY           SKY/WX    TMP DP  RH WIND       PRES   REMARKS
BURLEY         SUNNY     84  51  31 E6        30.02F
JEROME         SUNNY     84  47  27 E6        30.03F
TWIN FALLS     SUNNY     86  49  27 N8        30.00F
$$

IDZ019>023-042100-
SOUTHEAST IDAHO


CITY           SKY/WX    TMP DP  RH WIND       PRES   REMARKS
IDAHO FALLS    SUNNY     81  49  32 SW9       30.09F
POCATELLO      MOSUNNY   84  54  35 VRB5      30.07F
REXBURG        SUNNY     78  52  40 S9        30.10F
$$

IDZ006-010-011-018-031-032-042100-
CENTRAL IDAHO MOUNTAINS


CITY           SKY/WX    TMP DP  RH WIND       PRES   REMARKS
MCCALL         MOSUNNY   80  44  27 SW5       30.06F
HAILEY         MOSUNNY   79  52  38 S14       30.12F
STANLEY          N/A     76  38  25 VRB7      30.17F
SALMON         PTSUNNY   82  46  28 NW6       29.95F
CHALLIS        MOSUNNY   84  40  21 VRB6      30.03F
$$

IDZ002-004-006-007-026-042100-
NORTHERN IDAHO


CITY           SKY/WX    TMP DP  RH WIND       PRES   REMARKS
LEWISTON       PTSUNNY   89  42  19 NW5       29.88F
LOWELL           N/A     90  46  21 N3        29.87F
COEUR D`ALENE  MOSUNNY   82  46  28 S9        29.91F
MULLAN PASS    LGT RAIN  62  43  49 SW8       30.13R
$$


USA.gov is the U.S. government's official web portal to all federal, state and local government web resources and services.